[[{"header":{"parameterUnit":"m.s-1","parameterCategory":1,"la1":30.2991,"la2":30.254,"lo1":-89.0895,"lo2":-89.0444,"dy":0.0017,"dx":0.0017,"nx":28,"ny":28,"refTime":"2024-07-22T03:00:00:Z","depth":0,"parameterNumber":2,"parameterNumberName":"U-component_of_WINDS"},"data":[0,0,0,0,0,0,0,0,0,0,0,0,0,0,0,0,0,0,0,0,0,0,0,0,0,0,0,0,0,0,0,0,0,0,0,0,0,0,0,0,0,0,0,0,0,0,0,0,0,0,0,0,0,0,0,0,0,0,1.0433,1.0434,0,1.0468,1.0469,1.0469,1.0485,1.0485,1.0485,1.0485,1.0519,1.052,1.0521,0,0,0,0,0,0,0,0,0,0,0,0,0,1.0376,1.0377,1.0433,1.0434,1.0434,1.0468,1.0469,1.0469,1.0485,1.0485,1.0485,1.0485,1.0519,1.052,1.0521,0,0,0,0,0,0,0,0,0,0,0,0,0,1.0405,1.0377,1.0433,1.0446,1.0448,1.0468,1.0469,1.0469,1.0485,1.0485,1.0485,1.0485,1.0518,1.052,1.0521,1.053,0,0,1.0525,1.0526,0,0,0,0,0,0,0,0,1.0403,1.0407,1.0444,1.0446,1.0447,1.0473,1.0461,1.049,1.0485,1.0471,1.0485,1.0485,1.0503,1.0506,1.0512,1.0531,1.0533,1.0525,1.0526,1.0527,1.0527,0,0,0,0,0,0,0,1.0401,1.0405,1.0447,1.0444,1.0446,1.0449,1.0453,1.0466,1.0487,1.0472,1.0474,1.0478,1.0504,1.0511,1.0513,1.0533,1.0525,1.0526,1.0527,1.0528,1.0558,1.0558,0,0,0,0,0,0,1.0397,1.0404,1.0446,1.0448,1.0425,1.045,1.0455,1.0464,1.0487,1.049,1.0478,1.0478,1.0509,1.0512,1.0515,1.0525,1.0527,1.0528,1.0529,1.0558,1.0558,1.0558,0,0,0,0,0,0,1.0396,1.0401,1.0445,1.0426,1.0432,1.0451,1.0462,1.0465,1.0472,1.0491,1.0494,1.0481,1.0509,1.0513,1.0525,1.0526,1.0528,1.053,1.0558,1.0558,1.0558,1.0546,0,0,0,0,0,0,1.0394,1.04,1.0405,1.0426,1.0433,1.0456,1.0462,1.0466,1.0475,1.0476,1.0495,1.0498,1.0509,1.0523,1.0527,1.0528,1.0531,1.0558,1.0558,1.0558,1.0546,1.0545,1.0545,0,0,0,0,0,1.0392,1.0401,1.0406,1.0411,1.044,1.0456,1.046,1.0473,1.0475,1.0479,1.049,1.0498,1.0525,1.0524,1.0528,1.053,1.0558,1.0558,1.0558,1.0546,1.0545,1.0545,0,0,0,0,0,0,1.038,1.0404,1.041,1.0425,1.0439,1.0459,1.0465,1.0472,1.0484,1.0485,1.05,1.0504,1.0514,1.0524,1.0522,1.0538,1.0542,1.0543,1.0532,1.0531,1.053,1.0528,1.0532,0,0,0,0,0,1.0379,1.0391,1.0411,1.0423,1.043,1.0446,1.0454,1.0462,1.0476,1.0482,1.0494,1.0507,1.0518,1.0525,1.0537,1.0547,1.055,1.055,1.0549,1.0548,1.0549,1.0552,1.0552,1.0558,1.0558,1.0558,0,0,1.0377,1.0392,1.0399,1.0421,1.0432,1.0443,1.0451,1.0463,1.047,1.0483,1.0496,1.0505,1.052,1.0531,1.0536,1.0538,1.0548,1.0548,1.0548,1.0549,1.0552,1.0552,1.0551,1.0558,1.0558,1.0558,0,0,1.038,1.0393,1.0403,1.0413,1.043,1.044,1.0442,1.0461,1.0468,1.0481,1.049,1.0498,1.0518,1.0527,1.0535,1.0536,1.0543,1.054,1.0535,1.0539,1.0538,1.0538,1.0537,1.0536,1.054,1.054,1.054,0,1.0375,1.0393,1.0407,1.0418,1.0426,1.0438,1.0447,1.0456,1.0476,1.048,1.0483,1.0506,1.0517,1.0528,1.0528,1.0535,1.0536,1.0538,1.0537,1.0537,1.0537,1.0536,1.0536,1.0539,1.0539,1.0539,1.0539,0,1.0386,1.0398,1.0404,1.0422,1.043,1.044,1.0454,1.0461,1.0467,1.0477,1.0488,1.0501,1.0514,1.0517,1.0525,1.0529,1.053,1.0535,1.0539,1.0535,1.0535,1.0535,1.0538,1.0539,1.0539,1.0539,0,0,1.0384,1.0407,1.0408,1.0415,1.0433,1.0442,1.0451,1.0464,1.0468,1.048,1.0487,1.0502,1.0505,1.0513,1.0521,1.0524,1.0522,1.0528,1.0528,1.0525,1.0525,1.0521,1.0521,1.0526,1.0526,1.0526,1.0523,0,1.0387,1.0405,1.0416,1.0428,1.0438,1.0447,1.0455,1.0465,1.0473,1.0481,1.049,1.05,1.0505,1.0509,1.0513,1.0522,1.0522,1.0522,1.0531,1.0531,1.0526,1.0521,1.0517,1.0514,1.0523,1.0523,1.0523,0,1.0395,1.0406,1.0419,1.0432,1.0437,1.0444,1.0454,1.0463,1.0474,1.0479,1.0487,1.0494,1.0502,1.0505,1.0514,1.0514,1.0518,1.0522,1.0522,1.0523,1.0527,1.052,1.0514,1.0513,1.0523,1.0523,1.0523,0,1.0389,1.0407,1.0417,1.0423,1.0439,1.0443,1.045,1.0461,1.0467,1.0476,1.048,1.049,1.0495,1.0501,1.051,1.0512,1.0518,1.0523,1.0521,1.0521,1.0522,1.0522,1.0515,1.0526,1.0526,1.0526,1.0526,0,1.0392,1.0399,1.0414,1.042,1.0427,1.0439,1.0445,1.0453,1.0462,1.0468,1.0477,1.0482,1.0494,1.05,1.0507,1.0513,1.0515,1.0518,1.052,1.0517,1.0517,1.052,1.052,1.0526,1.0526,1.0526,1.0526,0,1.0387,1.0398,1.0409,1.0423,1.0426,1.0431,1.0442,1.0447,1.0455,1.0462,1.0464,1.0476,1.0483,1.0493,1.0504,1.0508,1.0512,1.0515,1.0508,1.0509,1.0507,1.0506,1.0501,1.05,1.0512,1.0512,1.0512,0,1.0388,1.0394,1.0408,1.0412,1.0419,1.0427,1.0432,1.0443,1.0448,1.0459,1.0462,1.047,1.0477,1.0487,1.0496,1.0503,1.0506,1.0504,1.0507,1.0503,1.0504,1.0503,1.0503,1.0503,1.0502,1.0502,1.0502,0,1.0388,1.0392,1.04,1.0409,1.0415,1.0423,1.0431,1.0434,1.0446,1.0451,1.0458,1.0463,1.0473,1.048,1.0488,1.0493,1.0499,1.0501,1.0501,1.0498,1.0493,1.0494,1.0505,1.0501,1.0501,1.0501,1.0501,1.0501,1.0385,1.0389,1.0399,1.0407,1.0414,1.042,1.0424,1.0432,1.0438,1.0447,1.0452,1.0459,1.0467,1.0478,1.0483,1.0487,1.049,1.049,1.049,1.0489,1.0487,1.0492,1.0489,1.0489,1.0489,1.0489,1.0489,0,1.0384,1.039,1.0397,1.0407,1.0412,1.0417,1.0425,1.0429,1.0435,1.0442,1.0448,1.0455,1.0461,1.0469,1.0475,1.0477,1.0479,1.0478,1.0477,1.0478,1.0486,1.0485,1.0475,1.0475,1.0475,1.0475,1.0475,1.0475,1.0384,1.039,1.0395,1.0404,1.041,1.0416,1.042,1.0425,1.0431,1.0438,1.0443,1.0448,1.0455,1.0461,1.0466,1.0468,1.0469,1.0467,1.047,1.0477,1.0478,1.0479,1.0478,1.0467,1.0467,1.0461,1.0461,1.0461]},{"header":{"parameterUnit":"m.s-1","parameterCategory":1,"la1":30.2991,"la2":30.254,"lo1":-89.0895,"lo2":-89.0444,"dy":0.0017,"dx":0.0017,"nx":28,"ny":28,"refTime":"2024-07-22T03:00:00:Z","depth":0,"parameterNumber":3,"parameterNumberName":"V-component_of_WINDS"},"data":[0,0,0,0,0,0,0,0,0,0,0,0,0,0,0,0,0,0,0,0,0,0,0,0,0,0,0,0,0,0,0,0,0,0,0,0,0,0,0,0,0,0,0,0,0,0,0,0,0,0,0,0,0,0,0,0,0,0,5.0287,5.0288,0,5.0336,5.0337,5.0337,5.0274,5.0272,5.0269,5.0267,5.0315,5.0318,5.0321,0,0,0,0,0,0,0,0,0,0,0,0,0,5.0134,5.0137,5.0287,5.0288,5.0288,5.0336,5.0337,5.0338,5.0274,5.0272,5.0269,5.0266,5.0313,5.0318,5.0322,0,0,0,0,0,0,0,0,0,0,0,0,0,5.0194,5.0138,5.0287,5.0263,5.0261,5.0336,5.0337,5.0338,5.0275,5.0271,5.0268,5.0265,5.0312,5.0317,5.0322,5.0423,0,0,5.0338,5.034,0,0,0,0,0,0,0,0,5.019,5.0199,5.0266,5.0265,5.0263,5.0296,5.03,5.0366,5.0276,5.027,5.0267,5.0263,5.0311,5.0316,5.0333,5.0425,5.0427,5.0338,5.0341,5.0343,5.0345,0,0,0,0,0,0,0,5.0186,5.0197,5.0306,5.0267,5.0265,5.0248,5.0252,5.0312,5.0309,5.027,5.0265,5.0272,5.0309,5.0328,5.0333,5.0428,5.0338,5.0343,5.0346,5.0348,5.0601,5.0605,0,0,0,0,0,0,5.0186,5.0194,5.0305,5.0308,5.0217,5.0253,5.0259,5.0288,5.0308,5.0308,5.0275,5.0269,5.0321,5.0327,5.0335,5.0451,5.0343,5.0348,5.0351,5.0598,5.0602,5.0606,0,0,0,0,0,0,5.0183,5.0196,5.0303,5.025,5.0262,5.026,5.0294,5.0291,5.031,5.0312,5.0311,5.0295,5.0318,5.0327,5.0401,5.0452,5.0351,5.0355,5.0593,5.0599,5.0604,5.0687,0,0,0,0,0,0,5.0178,5.0195,5.0235,5.0251,5.0265,5.037,5.0297,5.0295,5.0319,5.0311,5.033,5.033,5.0316,5.0393,5.0406,5.0457,5.0359,5.0589,5.0596,5.0603,5.0679,5.0694,5.0707,0,0,0,0,0,5.0173,5.0256,5.0237,5.0251,5.0315,5.0373,5.0381,5.0364,5.0323,5.0362,5.0363,5.0329,5.0445,5.0402,5.0415,5.0469,5.0585,5.0594,5.0602,5.0673,5.0692,5.0707,0,0,0,0,0,0,5.0245,5.0258,5.0237,5.0328,5.035,5.0362,5.041,5.0385,5.0418,5.041,5.0387,5.0391,5.0469,5.0476,5.0428,5.0565,5.0508,5.0519,5.0558,5.0575,5.0589,5.0585,5.0363,0,0,0,0,0,5.0272,5.032,5.0328,5.0407,5.0419,5.0413,5.0438,5.0423,5.0445,5.0453,5.046,5.0481,5.0522,5.0549,5.0587,5.0681,5.0682,5.0724,5.0738,5.0749,5.0759,5.0806,5.0824,5.0633,5.0633,5.0633,0,0,5.0327,5.034,5.0371,5.0422,5.0437,5.0485,5.0421,5.0476,5.051,5.0461,5.053,5.0536,5.0558,5.0641,5.0678,5.065,5.0812,5.076,5.0769,5.0772,5.0816,5.0834,5.085,5.0639,5.0638,5.0637,0,0,5.0452,5.0468,5.0534,5.0551,5.0575,5.057,5.0586,5.0602,5.0604,5.0673,5.0636,5.0677,5.0748,5.0764,5.0782,5.0911,5.0881,5.0924,5.0996,5.1043,5.1058,5.1071,5.1115,5.1131,5.0934,5.0934,5.0934,0,5.0517,5.059,5.0572,5.0628,5.065,5.0608,5.0674,5.069,5.0725,5.0741,5.0709,5.0796,5.0808,5.0893,5.0924,5.0941,5.0956,5.0921,5.1057,5.107,5.1082,5.1124,5.114,5.0939,5.0939,5.0938,5.0938,0,5.0667,5.0718,5.0769,5.0803,5.0831,5.0892,5.0881,5.0912,5.0894,5.0892,5.0962,5.0975,5.1013,5.1032,5.1016,5.1115,5.1096,5.1061,5.1003,5.1106,5.1144,5.116,5.0946,5.0945,5.0943,5.0942,0,0,5.0839,5.0862,5.0881,5.0895,5.0918,5.0956,5.1014,5.1052,5.1077,5.1102,5.1148,5.1209,5.1176,5.1196,5.1181,5.1222,5.132,5.1182,5.1182,5.1205,5.1427,5.1452,5.147,5.1301,5.1304,5.1306,5.1424,0,5.0962,5.1063,5.1048,5.1145,5.1189,5.115,5.12,5.1218,5.1217,5.1254,5.1253,5.1295,5.125,5.1262,5.1301,5.13,5.1364,5.1292,5.1342,5.1344,5.1336,5.1491,5.1518,5.1628,5.1439,5.1442,5.1444,0,5.1119,5.115,5.1251,5.1265,5.1283,5.1329,5.1361,5.1397,5.1416,5.1413,5.1435,5.1411,5.1467,5.1409,5.1484,5.1435,5.1455,5.1457,5.1461,5.1464,5.1399,5.1495,5.1664,5.168,5.1468,5.1466,5.1464,0,5.1231,5.1298,5.1367,5.138,5.1398,5.1431,5.144,5.1455,5.1479,5.1507,5.1521,5.1555,5.1573,5.16,5.1585,5.1545,5.1662,5.1604,5.1659,5.1659,5.1684,5.1682,5.1856,5.17,5.17,5.17,5.1699,0,5.1369,5.1432,5.1417,5.1459,5.1527,5.1508,5.1576,5.158,5.1594,5.1635,5.1603,5.1641,5.1621,5.1658,5.1647,5.1709,5.1719,5.1716,5.1712,5.1718,5.1718,5.1729,5.172,5.1704,5.1703,5.1702,5.1701,0,5.1506,5.1498,5.157,5.1581,5.1585,5.1635,5.1643,5.1681,5.1678,5.173,5.1741,5.1735,5.1776,5.1765,5.181,5.1803,5.1881,5.1868,5.1874,5.187,5.1925,5.192,5.211,5.2133,5.1965,5.1967,5.1968,0,5.1593,5.1641,5.1656,5.1681,5.1693,5.1734,5.1757,5.1739,5.1764,5.1789,5.1824,5.1862,5.1892,5.1959,5.1958,5.1992,5.1978,5.2043,5.1983,5.1986,5.1976,5.1973,5.1976,5.2054,5.2056,5.2057,5.2059,0,5.1748,5.1742,5.1777,5.1811,5.1839,5.1865,5.1887,5.1909,5.1893,5.1922,5.1964,5.1987,5.2033,5.207,5.2101,5.2108,5.208,5.2078,5.2092,5.2097,5.2098,5.2096,5.1904,5.2073,5.2072,5.2071,5.207,5.2069,5.1861,5.1901,5.1917,5.1957,5.1972,5.1993,5.2028,5.2029,5.2064,5.21,5.2087,5.2134,5.215,5.2188,5.2199,5.2235,5.221,5.2231,5.2236,5.2241,5.2247,5.2094,5.224,5.224,5.224,5.2239,5.2239,0,5.2013,5.2021,5.2058,5.209,5.212,5.2092,5.2115,5.2142,5.2184,5.2202,5.2231,5.2278,5.2314,5.2316,5.2349,5.2377,5.2365,5.2386,5.2383,5.2384,5.2268,5.2252,5.2395,5.2395,5.2395,5.2395,5.2395,5.2395,5.2095,5.2159,5.2155,5.2225,5.2232,5.2279,5.2294,5.2312,5.2326,5.2379,5.2409,5.241,5.2421,5.2454,5.2485,5.2485,5.2497,5.2523,5.2517,5.2408,5.2393,5.2378,5.2362,5.2527,5.2527,5.263,5.2631,5.2632]}]]